Location: Burland Observatory
(39.4088°N, 105.4217°W)
Time: 09:10:40
(UTC-07:00)

A-11 Canister half - All Passes

Search period start: 14 December 2019 00:00
Search period end: 24 December 2019 00:00
Orbit: 1526 x 1683 km, 47.3° (Epoch: 13 December)

Date Brightness Start Highest point End Pass type
(mag) Time Alt. Az. Time Alt. Az. Time Alt. Az.
14 Dec - 02:27:47 10° S 02:34:55 23° SE 02:42:08 10° E visible
14 Dec - 04:28:49 10° SW 04:38:48 72° SE 04:48:54 10° ENE visible
14 Dec - 06:34:21 10° W 06:44:23 62° NNW 06:54:26 10° ENE visible
14 Dec - 08:40:56 10° WNW 08:50:57 58° N 09:00:48 10° E daylight
14 Dec - 10:46:38 10° WNW 10:56:46 82° SSW 11:06:36 10° SE daylight
14 Dec - 12:52:54 10° WNW 13:00:50 28° SW 13:08:37 10° S daylight
15 Dec - 02:06:32 10° S 02:13:21 21° SE 02:20:14 10° E visible
15 Dec - 04:07:13 10° SW 04:17:09 69° SE 04:27:13 10° ENE visible
15 Dec - 06:12:37 10° W 06:22:40 63° NNW 06:32:44 10° ENE visible
15 Dec - 08:19:13 10° WNW 08:29:14 58° N 08:39:05 10° E daylight
15 Dec - 10:24:55 10° WNW 10:35:06 85° SSW 10:45:00 10° SE daylight
15 Dec - 12:31:06 10° WNW 12:39:16 30° SW 12:47:15 10° S daylight
16 Dec - 01:45:18 10° SSE 01:51:46 20° SE 01:58:19 10° E visible
16 Dec - 03:45:38 10° SW 03:55:30 67° SE 04:05:32 10° ENE visible
16 Dec - 05:50:54 10° W 06:00:57 64° NNW 06:11:03 10° ENE visible
16 Dec - 07:57:29 10° WNW 08:07:29 57° N 08:17:22 10° E daylight
16 Dec - 10:03:14 10° WNW 10:13:26 87° SSW 10:23:22 10° SE daylight
16 Dec - 12:09:18 10° WNW 12:17:41 32° SW 12:25:53 10° S daylight
17 Dec - 01:24:08 10° SSE 01:30:13 18° ESE 01:36:21 10° E visible
17 Dec - 03:24:03 10° SW 03:33:51 64° SE 03:43:50 10° ENE visible
17 Dec - 05:29:11 10° W 05:39:14 65° NNW 05:49:21 10° ENE visible
17 Dec - 07:35:46 10° WNW 07:45:46 57° N 07:55:38 10° E daylight
17 Dec - 09:41:34 10° WNW 09:51:47 90° SSE 10:01:43 10° ESE daylight
17 Dec - 11:47:31 10° WNW 11:56:06 34° SW 12:04:29 10° S daylight
18 Dec - 01:03:01 10° SSE 01:08:39 17° ESE 01:14:20 10° E visible
18 Dec - 03:02:29 10° SW 03:12:13 61° SE 03:22:09 10° ENE visible
18 Dec - 05:07:28 10° W 05:17:30 67° NNW 05:27:39 10° ENE visible
18 Dec - 07:14:03 10° WNW 07:24:01 56° N 07:33:55 10° E daylight
18 Dec - 09:19:52 10° WNW 09:30:06 88° NNE 09:40:04 10° ESE daylight
18 Dec - 11:25:45 10° WNW 11:34:31 36° SW 11:43:05 10° SSE daylight
19 Dec - 00:41:57 10° SSE 00:47:05 15° ESE 00:52:17 10° E visible
19 Dec - 02:40:56 10° SW 02:50:34 58° SE 03:00:27 10° ENE visible
19 Dec - 04:45:46 10° WSW 04:55:48 68° NNW 05:05:58 10° ENE visible
19 Dec - 06:52:19 10° WNW 07:02:17 56° N 07:12:11 10° E daylight
19 Dec - 08:58:11 10° WNW 09:08:25 85° NNE 09:18:26 10° ESE daylight
19 Dec - 11:03:59 10° WNW 11:12:55 38° SW 11:21:39 10° SSE daylight
20 Dec - 00:20:59 10° SSE 00:25:32 14° ESE 00:30:08 10° E night (unlit)
20 Dec - 02:19:23 10° SSW 02:28:57 56° SE 02:38:44 10° ENE visible
20 Dec - 04:24:03 10° WSW 04:34:05 70° NNW 04:44:16 10° ENE visible
20 Dec - 06:30:36 10° WNW 06:40:33 56° N 06:50:28 10° E visible
20 Dec - 08:36:30 10° WNW 08:46:44 83° NNE 08:56:46 10° ESE daylight
20 Dec - 10:42:15 10° WNW 10:51:19 40° SW 11:00:12 10° SSE daylight
21 Dec - 00:00:09 10° SE 00:03:59 13° ESE 00:07:51 10° E night (unlit)
21 Dec - 01:57:51 10° SSW 02:07:19 53° SE 02:17:02 10° ENE visible
21 Dec - 04:02:21 10° WSW 04:12:22 71° NNW 04:22:34 10° ENE visible
21 Dec - 06:08:52 10° WNW 06:18:48 55° N 06:28:43 10° E visible
21 Dec - 08:14:48 10° WNW 08:25:02 81° NNE 08:35:06 10° ESE daylight
21 Dec - 10:20:30 10° WNW 10:29:43 42° SW 10:38:44 10° SSE daylight
21 Dec - 23:39:31 10° SE 23:42:26 12° ESE 23:45:23 10° ESE night (unlit)
22 Dec - 01:36:21 10° SSW 01:45:43 51° SE 01:55:19 10° ENE visible
22 Dec - 03:40:40 10° WSW 03:50:40 73° NNW 04:00:53 10° ENE visible
22 Dec - 05:47:09 10° WNW 05:57:04 55° N 06:07:00 10° ENE visible
22 Dec - 07:53:08 10° WNW 08:03:21 78° NNE 08:13:25 10° ESE daylight
22 Dec - 09:58:45 10° WNW 10:08:06 44° SW 10:17:16 10° SSE daylight
22 Dec - 23:19:28 10° SE 23:20:54 10° ESE 23:22:20 10° ESE night (unlit)
23 Dec - 01:14:50 10° SSW 01:24:05 48° SE 01:33:35 10° ENE visible
23 Dec - 03:18:58 10° WSW 03:28:58 75° NNW 03:39:11 10° ENE visible
23 Dec - 05:25:26 10° WNW 05:35:20 55° N 05:45:16 10° ENE visible
23 Dec - 07:31:26 10° WNW 07:41:39 76° NNE 07:51:44 10° ESE daylight
23 Dec - 09:37:02 10° WNW 09:46:30 46° SW 09:55:47 10° SSE daylight
